| time (UTC) | temp F | wind direction | speed knots | gust knots | rain 1hr in | rain 24hr in | rain mn in | humidity % | barometer mb |
| 20260505171511 | 82 | 221 | 1.7 | 9.6 | 0.00 | 0.00 | 0.00 | 35 | 1012.7 |
| 20260505170019 | 83 | 89 | 0.9 | 5.2 | 0.00 | 0.00 | 0.00 | 36 | 1012.8 |
| 20260505164520 | 83 | 147 | 0.9 | 7.0 | 0.00 | 0.00 | 0.00 | 39 | 1013.1 |
| 20260505163009 | 82 | 278 | 0.9 | 5.2 | 0.00 | 0.00 | 0.00 | 38 | 1013.3 |
| 20260505161508 | 81 | 158 | 0.0 | 7.0 | 0.00 | 0.00 | 0.00 | 41 | 1013.5 |
| 20260505153023 | 79 | 269 | 0.0 | 5.2 | 0.00 | 0.00 | 0.00 | 44 | 1013.9 |
| 20260505151507 | 78 | 101 | 0.9 | 3.5 | 0.00 | 0.00 | 0.00 | 47 | 1013.8 |
| 20260505124504 | 63 | 315 | 0.0 | 2.6 | 0.00 | 0.00 | 0.00 | 63 | 1014.0 |
| 20260505123003 | 62 | 194 | 0.0 | 2.6 | 0.00 | 0.00 | 0.00 | 64 | 1014.0 |
| 20260505121508 | 62 | 194 | 0.0 | 5.2 | 0.00 | 0.00 | 0.00 | 65 | 1014.0 |
| 20260505120006 | 61 | 226 | 0.9 | 2.6 | 0.00 | 0.00 | 0.00 | 66 | 1013.9 |
| 20260505114506 | 61 | 221 | 0.0 | 3.5 | 0.00 | 0.00 | 0.00 | 66 | 1013.7 |
| 20260505113016 | 60 | 107 | 0.0 | 4.3 | 0.00 | 0.00 | 0.00 | 66 | 1013.6 |
| 20260505111507 | 60 | 214 | 0.0 | 3.5 | 0.00 | 0.00 | 0.00 | 66 | 1013.5 |
| 20260505101513 | 60 | 143 | 0.0 | 3.5 | 0.00 | 0.00 | 0.00 | 64 | 1013.1 |
| 20260505100019 | 60 | 235 | 0.0 | 2.6 | 0.00 | 0.00 | 0.00 | 64 | 1013.0 |
| 20260505094510 | 61 | 203 | 0.0 | 2.6 | 0.00 | 0.00 | 0.00 | 64 | 1013.0 |
| 20260505093020 | 61 | 161 | 0.0 | 3.5 | 0.00 | 0.00 | 0.00 | 63 | 1013.0 |
| 20260505091511 | 61 | 110 | 0.0 | 6.1 | 0.00 | 0.00 | 0.00 | 63 | 1013.1 |
| 20260505090014 | 61 | 117 | 0.0 | 2.6 | 0.00 | 0.00 | 0.00 | 62 | 1013.0 |
| 20260505084512 | 61 | 217 | 0.0 | 3.5 | 0.00 | 0.00 | 0.00 | 62 | 1013.0 |
| 20260505083014 | 60 | 205 | 0.0 | 2.6 | 0.00 | 0.00 | 0.00 | 62 | 1012.8 |
| 20260505081512 | 60 | 140 | 0.0 | 2.6 | 0.00 | 0.00 | 0.00 | 63 | 1012.7 |
| 20260505080014 | 60 | 126 | 0.0 | 1.7 | 0.00 | 0.00 | 0.00 | 63 | 1012.7 |
| 20260505074514 | 60 | 219 | 0.0 | 1.7 | 0.00 | 0.00 | 0.00 | 64 | 1012.6 |
| 20260505073018 | 60 | 98 | 0.0 | 2.6 | 0.00 | 0.00 | 0.00 | 64 | 1012.6 |
| 20260505071518 | 59 | 190 | 0.0 | 1.7 | 0.00 | 0.00 | 0.00 | 65 | 1012.5 |
| 20260505070006 | 59 | 63 | 0.0 | 1.7 | 0.00 | 0.00 | 0.00 | 66 | 1012.4 |
| 20260505064510 | 59 | 240 | 0.0 | 1.7 | 0.00 | 0.00 | 0.00 | 67 | 1012.3 |
| 20260505063004 | 59 | 144 | 0.0 | 1.7 | 0.00 | 0.00 | 0.00 | 69 | 1012.4 |
| 20260505061507 | 59 | 163 | 0.0 | 1.7 | 0.00 | 0.00 | 0.00 | 69 | 1012.2 |
| 20260505060024 | 60 | 74 | 0.0 | 0.9 | 0.00 | 0.00 | 0.00 | 67 | 1012.2 |
| 20260505054516 | 60 | 76 | 0.0 | 1.7 | 0.00 | 0.00 | 0.00 | 65 | 1012.1 |
| 20260505053012 | 61 | 113 | 0.0 | 1.7 | 0.00 | 0.00 | 0.00 | 65 | 1012.2 |
| 20260505051507 | 61 | 218 | 0.0 | 0.9 | 0.00 | 0.00 | 0.00 | 65 | 1012.2 |
| 20260505041512 | 61 | 143 | 0.0 | 1.7 | 0.00 | 0.00 | 0.00 | 66 | 1011.7 |
| 20260505040008 | 61 | 109 | 0.0 | 0.9 | 0.00 | 0.00 | 0.00 | 66 | 1011.7 |
| 20260505034513 | 62 | 103 | 0.0 | 0.9 | 0.00 | 0.00 | 0.00 | 63 | 1011.8 |
| 20260505033019 | 63 | 236 | 0.0 | 0.0 | 0.00 | 0.00 | 0.00 | 61 | 1011.9 |
| 20260505031516 | 65 | 236 | 0.0 | 0.0 | 0.00 | 0.00 | 0.00 | 59 | 1011.9 |
| 20260505030025 | 65 | 236 | 0.0 | 1.7 | 0.00 | 0.00 | 0.00 | 56 | 1012.1 |
| 20260505024508 | 66 | 229 | 0.0 | 2.6 | 0.00 | 0.00 | 0.00 | 55 | 1012.2 |
| 20260505023015 | 66 | 211 | 0.0 | 2.6 | 0.00 | 0.00 | 0.00 | 56 | 1012.2 |
| 20260505021516 | 66 | 182 | 0.0 | 1.7 | 0.00 | 0.00 | 0.00 | 54 | 1012.1 |
| 20260505020017 | 67 | 288 | 0.0 | 0.9 | 0.00 | 0.00 | 0.00 | 54 | 1012.1 |
| 20260505014517 | 68 | 245 | 0.0 | 0.9 | 0.00 | 0.00 | 0.00 | 52 | 1012.0 |
| 20260505013012 | 69 | 184 | 0.0 | 0.9 | 0.00 | 0.00 | 0.00 | 50 | 1011.9 |
| 20260505011518 | 70 | 186 | 0.0 | 0.9 | 0.00 | 0.00 | 0.00 | 48 | 1011.7 |
| 20260505010018 | 70 | 182 | 0.0 | 2.6 | 0.00 | 0.00 | 0.00 | 46 | 1011.6 |
| 20260505004535 | 71 | 228 | 0.0 | 1.7 | 0.00 | 0.00 | 0.00 | 45 | 1011.6 |
| 20260505003007 | 71 | 269 | 0.0 | 1.7 | 0.00 | 0.00 | 0.00 | 45 | 1011.6 |
| 20260505001515 | 72 | 201 | 0.0 | 0.9 | 0.00 | 0.00 | 0.00 | 42 | 1011.4 |
| 20260505000021 | 73 | 239 | 0.0 | 3.5 | 0.00 | 0.00 | 0.00 | 42 | 1011.4 |
| 20260504234528 | 73 | 223 | 0.0 | 3.5 | 0.00 | 0.00 | 0.00 | 40 | 1011.2 |
| 20260504233008 | 74 | 140 | 0.0 | 2.6 | 0.00 | 0.00 | 0.00 | 39 | 1011.2 |
| 20260504231528 | 74 | 140 | 0.0 | 2.6 | 0.00 | 0.00 | 0.00 | 39 | 1011.1 |
| 20260504230017 | 75 | 66 | 0.0 | 7.8 | 0.00 | 0.00 | 0.00 | 39 | 1011.0 |
| 20260504224520 | 75 | 62 | 0.0 | 6.1 | 0.00 | 0.00 | 0.00 | 38 | 1011.0 |
| 20260504223022 | 75 | 84 | 0.0 | 4.3 | 0.00 | 0.00 | 0.00 | 38 | 1010.9 |
| 20260504221509 | 75 | 213 | 0.0 | 5.2 | 0.00 | 0.00 | 0.00 | 38 | 1011.0 |
| 20260504220011 | 76 | 270 | 0.9 | 5.2 | 0.00 | 0.00 | 0.00 | 37 | 1011.2 |
| 20260504214524 | 76 | 216 | 0.9 | 4.3 | 0.00 | 0.00 | 0.00 | 36 | 1011.1 |
| 20260504213029 | 77 | 315 | 0.9 | 4.3 | 0.00 | 0.00 | 0.00 | 37 | 1011.0 |
| 20260504211526 | 77 | 221 | 0.0 | 4.3 | 0.00 | 0.00 | 0.00 | 38 | 1011.0 |
| 20260504210013 | 76 | 246 | 0.0 | 5.2 | 0.00 | 0.00 | 0.00 | 36 | 1011.1 |
| 20260504204542 | 76 | 178 | 0.9 | 7.0 | 0.00 | 0.00 | 0.00 | 36 | 1011.2 |
| 20260504203024 | 76 | 223 | 0.0 | 2.6 | 0.00 | 0.00 | 0.00 | 35 | 1011.0 |
| 20260504201525 | 76 | 221 | 0.0 | 6.1 | 0.00 | 0.00 | 0.00 | 37 | 1011.3 |
| 20260504200030 | 75 | 149 | 0.9 | 3.5 | 0.00 | 0.00 | 0.00 | 36 | 1011.5 |
| 20260504194512 | 75 | 309 | 0.9 | 4.3 | 0.00 | 0.00 | 0.00 | 37 | 1011.6 |
| 20260504193023 | 74 | 84 | 0.0 | 5.2 | 0.00 | 0.00 | 0.00 | 36 | 1011.8 |
| 20260504191521 | 75 | 317 | 0.0 | 3.5 | 0.00 | 0.00 | 0.00 | 38 | 1011.9 |
| 20260504190033 | 77 | 197 | 0.9 | 5.2 | 0.00 | 0.00 | 0.00 | 33 | 1012.1 |
| 20260504184526 | 78 | 107 | 0.9 | 3.5 | 0.00 | 0.00 | 0.00 | 33 | 1012.3 |
| 20260504183018 | 78 | 202 | 0.9 | 5.2 | 0.00 | 0.00 | 0.00 | 33 | 1012.4 |
| 20260504181504 | 78 | 101 | 0.9 | 6.1 | 0.00 | 0.00 | 0.00 | 32 | 1012.9 |
| 20260504180004 | 78 | 171 | 0.9 | 5.2 | 0.00 | 0.00 | 0.00 | 31 | 1013.1 |
| 20260504174509 | 78 | 294 | 0.9 | 3.5 | 0.00 | 0.00 | 0.00 | 31 | 1013.2 |
| 20260504173013 | 77 | 328 | 0.0 | 5.2 | 0.00 | 0.00 | 0.00 | 34 | 1013.3 |